Retour au catalogue

STARLINK-5321

ActifCommunicationsVLEO
NORAD 55302·PAYLOAD·🇺🇸 United States

Lancé Jan 19, 2023 depuis Vandenberg Space Force Base

Loading…

Prochains Passages (prochaines 24 heures)

TLE

FraisSource: CelesTrak SupGP

Époque: Sep 14, 2026, 22:00 UTC

1 55302C 23010AK  26257.91715278  .00068162  00000+0  57144-2 0  2575
2 55302  69.9995 267.2490 0003557 264.6957 175.4022 14.98280401    12

Suivez STARLINK-5321 en temps réel avec AllMySat

Download on the App Store